SL-19 DEB, 23488

Orbit data source: Space-Track

SL-19 DEB, 23488 is space debris in LEO originally from a launch on Mon, 26 Dec 1994 UTC launched from the Tyuratam Missile And Space Complex (TTMTR). Debris objects in space refer to the collection of defunct objects orbiting the Earth. Examples of debris include non-operational satellites, rocket bodies, and fragments generated from explosions, collisions, or faulty payload assembly.

Loading next visibility...
Identifier
23488, 1994-085L
Orbit
LEO
Last TLE update
11 hours ago
Origin
Manufacturer
Unknown
Mission
Spacecraft
Bus & Motor
Unknown
Mass
Unknown
Launch date (UTC)
1994-12-26 (31 years ago)
Launch vehicle
Unknown
Launch site
Tyuratam Missile And Space Complex (TTMTR)
Object type
Payload
Rocket body
Debris
Shape & HBR
Unknown
Radar Cross Section
Medium (>0.1 m² and <1 m²)

Expand to show TLE details & history

TLE from 11 hours ago
0 SL-19 DEB
1 23488U 94085L   25183.63930212 -.00001047  00000-0 -27085-1 0  9993
2 23488  65.0029 282.2514 0226657 188.5007 283.3428 11.29457833255724
Epoch: 2025-07-02T15:20Z
TLE epoch observation values (Epoch: 2025-07-02T15:20:35.703Z)
Latitude
58.9088°
Longitude
-99.13141°
Altitude
1,982.264 km
Speed
6.928 km/s
True Right ascension
03h 27m 44s
True Declination
58° 46' 44"
Sunlit
Object was in daylight at epoch
Visualization orbit readout
Latitude
-1.56747°
Longitude
-48.82913°
Altitude
1,825.992 km
Speed
7.05 km/s
Apparent Right ascension
05h 08m 40s
Apparent Declination
-21° 32' 09"
Sunlit
Object is in daylight
Visualization observer readout
Local Sidereal Time
14:07:56
Azimuth
281.908° WNW
Elevation
-47.596°
Doppler factor
1
Orbital elements
Apogee altitude
2,201.969 km
Perigee altitude
1,821.642 km
Semi-major axis
8,389.943 km
Eccentricity
0.02267
Inclination
65.0029°
RAAN
282.2514°
Arg. of periapsis
188.5007°
True anomaly
Unknown
Mean anomaly
283.3428°
Eccentric anomaly
Unknown
Mean motion
2.82426 °/min
Orbital period
127.47 mins
BSTAR
-0.027085
Loading maneuver chart data...
Loading SW <> Apogee altitude chart data...
Loading historical data...
Loading historical data...
Loading historical data...
Loading historical data...
Loading historical data...
Loading historical data...
Loading historical data...

SL-19 DEB Visibility forecast

Observer location: undefined°, undefined°

Span
Click to sort rows by Start time (UTC) header in descending order
Start Az.
Max El. time (UTC)
Max El. Az.
Max El.
End time (UTC)
End Az.
11 mins2025-07-03 05:40:55.429Z122.739° SE2025-07-03 05:46:55.429Z92.735° ESE14.026°2025-07-03 05:51:55.429Z67.747° E
22 mins2025-07-03 07:45:55.429Z192.49° SSW2025-07-03 07:55:55.429Z127.555° SE42.861°2025-07-03 08:07:55.429Z35.952° NE
20 mins2025-07-03 09:59:55.429Z254.865° W2025-07-03 10:09:55.429Z322.987° NNW33.626°2025-07-03 10:19:55.429Z25.261° NE
14 mins2025-07-03 12:19:55.429Z314.667° NW2025-07-03 12:25:55.429Z348.694° N18.867°2025-07-03 12:33:55.429Z34.084° NE
16 mins2025-07-03 14:35:55.429Z336.811° NNW2025-07-03 14:43:55.429Z25.438° NE23.959°2025-07-03 14:51:55.429Z77.112° E
20 mins2025-07-03 16:48:55.429Z331.379° NNW2025-07-03 16:58:55.429Z66.56° ENE43.778°2025-07-03 17:08:55.429Z140.293° SSE
16 mins2025-07-03 19:01:55.429Z306.855° NW2025-07-03 19:09:55.429Z254.111° W25.619°2025-07-03 19:17:55.429Z203.42° SW
|